Temperature
-2 -1 -1 -1 -2 -2 -2 -2 -1 -0 -0 1 0 -0 -0 0 1 1 1 1 1 1 1 1 2 2 2 2 2 2 2 2 2 2 2 2 2 2 2 2 2 2 2 3
-2 -1 -2 -2 -1 -2 -2 -2 -2 -1 -0 -0 -0 -0 -0 0 -0 -0 0 0 1 1 1 1 1 1 1 1 1 1 1 1 1 1 1 2 2 2 2 2 2 2 2 2
-1 -2 -1 -1 -1 -2 -2 -3 -2 -1 -0 -1 -1 -1 -1 -0 -0 -0 -0 -0 0 0 0 1 1 1 1 1 1 1 1 1 1 1 1 1 1 1 1 1 1 1 1 1
-3 -2 0 1 -2 -2 -2 -2 -3 -2 -2 -1 -1 -0 0 0 -0 -0 -0 -0 -0 0 0 0 0 0 1 0 0 0 0 0 0 1 0 0 0 0 0 0 0 1 1 1
-3 -3 -2 -1 -2 -3 -2 -2 -2 -3 -2 -2 -1 -1 -0 0 0 -0 -0 -0 -0 -0 -0 -0 -0 -0 -0 -0 -0 -0 -0 -0 -0 -0 -0 -0 -0 -0 -0 -0 -0 -0 0 0
-4 -2 -0 1 -1 -2 -2 -1 -2 -3 -2 -2 -2 -2 -1 0 -0 -0 -0 -1 -1 -1 -0 -0 -0 -1 -1 -1 -1 -1 -1 -1 -1 -1 -1 -1 -1 -1 -1 -1 -1 -1 -1 -0
-4 -3 -2 -2 -2 -2 -1 0 -1 -1 -1 -2 -2 -2 -1 -0 -1 -1 -1 -1 -1 -1 -1 -1 -1 -1 -1 -1 -1 -1 -1 -1 -1 -1 -1 -1 -1 -1 -1 -1 -1 -1 -1 -1
-5 -3 -1 -2 -3 -2 -1 -0 -0 -1 -1 -1 -1 -1 -1 -1 -1 -1 -1 -1 -1 -1 -1 -1 -2 -1 -1 -2 -2 -2 -2 -2 -2 -2 -2 -2 -2 -2 -2 -2 -1 -2 -2 -1
-4 -2 -2 -2 -1 -1 -1 -1 -1 -1 -1 -1 -1 -1 -1 -1 -1 -1 -1 -2 -2 -2 -2 -2 -2 -2 -2 -2 -2 -2 -2 -2 -2 -2 -2 -2 -2 -2 -2 -2 -2 -2 -2 -2
-5 -4 -3 -2 -1 -1 -1 -1 -1 -1 -1 -1 -1 -1 -2 -2 -2 -2 -2 -2 -2 -2 -2 -2 -2 -2 -2 -3 -3 -3 -2 -3 -3 -3 -3 -3 -3 -3 -3 -2 -2 -2 -2 -2
-6 -5 -3 -1 -0 -0 -1 -1 -1 -1 -1 -1 -2 -2 -2 -2 -2 -2 -2 -2 -2 -2 -3 -3 -2 -3 -3 -3 -3 -3 -3 -3 -3 -3 -3 -3 -3 -3 -3 -3 -3 -3 -3 -3
-3 -2 -3 -1 -0 -0 -1 -1 -1 -1 -1 -1 -2 -2 -2 -2 -2 -2 -2 -2 -3 -3 -3 -3 -3 -3 -3 -3 -3 -3 -3 -3 -4 -4 -4 -4 -4 -4 -4 -3 -3 -3 -3 -3
-1 -1 -1 -1 -1 -1 -1 -1 -1 -1 -1 -2 -2 -2 -2 -2 -2 -3 -3 -3 -3 -3 -3 -3 -3 -3 -4 -4 -4 -4 -4 -4 -4 -4 -4 -4 -4 -4 -4 -4 -4 -4 -3 -3
-1 -1 -2 -1 -1 -1 -1 -1 -2 -2 -2 -2 -2 -2 -3 -3 -3 -3 -3 -3 -3 -3 -3 -3 -3 -4 -4 -4 -4 -4 -4 -4 -4 -4 -4 -4 -4 -4 -4 -4 -4 -4 -4 -4
-2 -2 -2 -1 -2 -2 -2 -2 -2 -2 -2 -2 -2 -3 -3 -3 -3 -3 -3 -3 -3 -3 -3 -3 -4 -4 -4 -4 -4 -4 -4 -4 -5 -5 -5 -5 -5 -4 -4 -4 -4 -4 -4 -4
-2 -2 -2 -2 -2 -2 -2 -2 -2 -2 -2 -3 -3 -3 -3 -3 -3 -3 -3 -4 -3 -3 -4 -4 -4 -4 -4 -5 -5 -5 -5 -5 -5 -5 -5 -5 -5 -5 -5 -5 -5 -5 -5 -5
-3 -3 -3 -3 -2 -2 -3 -3 -3 -3 -3 -3 -3 -3 -3 -3 -4 -4 -4 -4 -4 -4 -4 -4 -4 -4 -5 -5 -5 -5 -5 -5 -5 -5 -5 -5 -5 -5 -5 -5 -5 -5 -5 -5
-2 -2 -3 -3 -3 -3 -3 -3 -3 -3 -3 -3 -4 -4 -4 -4 -4 -4 -4 -4 -4 -4 -4 -5 -5 -5 -5 -5 -5 -5 -5 -5 -5 -5 -5 -5 -5 -5 -5 -5 -5 -5 -6 -6
-2 -3 -3 -3 -3 -3 -3 -3 -3 -3 -3 -4 -4 -4 -4 -4 -4 -4 -4 -4 -4 -5 -5 -5 -5 -5 -5 -5 -5 -5 -5 -6 -6 -6 -6 -6 -6 -6 -6 -6 -6 -6 -6 -6
-2 -3 -3 -3 -3 -3 -3 -3 -4 -4 -4 -4 -4 -4 -4 -4 -5 -5 -5 -5 -5 -5 -5 -5 -5 -5 -5 -5 -5 -5 -6 -6 -6 -6 -6 -6 -6 -6 -6 -6 -6 -6 -6 -6
-3 -3 -3 -3 -4 -4 -4 -4 -4 -4 -4 -4 -4 -4 -4 -5 -5 -5 -5 -5 -5 -5 -5 -6 -6 -6 -6 -6 -6 -6 -6 -6 -6 -6 -6 -6 -6 -6 -6 -6 -6 -6 -6 -6
-3 -3 -3 -3 -4 -4 -4 -4 -4 -4 -4 -4 -5 -5 -5 -5 -5 -5 -5 -5 -5 -6 -6 -6 -6 -6 -6 -6 -6 -6 -6 -6 -6 -6 -6 -6 -6 -6 -6 -6 -6 -6 -6 -6
-3 -3 -4 -4 -4 -4 -4 -4 -4 -5 -5 -5 -5 -5 -5 -5 -5 -5 -5 -5 -6 -6 -6 -6 -6 -6 -7 -7 -7 -6 -6 -6 -7 -7 -7 -7 -7 -7 -7 -7 -7 -6 -6 -6
-3 -4 -4 -4 -4 -4 -4 -4 -5 -5 -5 -5 -5 -5 -5 -5 -6 -6 -6 -6 -6 -6 -6 -6 -7 -7 -7 -7 -7 -7 -7 -7 -7 -7 -7 -7 -7 -7 -7 -7 -7 -6 -6 -6
-4 -4 -4 -4 -4 -4 -4 -5 -5 -5 -5 -5 -5 -6 -6 -6 -6 -6 -6 -6 -6 -6 -6 -7 -7 -7 -7 -7 -7 -7 -7 -7 -7 -7 -7 -7 -7 -7 -7 -7 -7 -6 -6 -6
-4 -4 -4 -4 -4 -5 -5 -5 -5 -5 -5 -6 -6 -6 -6 -6 -6 -6 -6 -7 -7 -7 -7 -7 -7 -7 -7 -7 -7 -7 -7 -7 -7 -7 -7 -7 -7 -7 -7 -6 -6 -6 -6 -6
-4 -4 -4 -4 -4 -5 -5 -5 -5 -5 -6 -6 -6 -6 -6 -7 -7 -7 -7 -7 -7 -7 -7 -7 -7 -7 -7 -7 -7 -7 -7 -7 -7 -7 -7 -7 -7 -7 -7 -6 -6 -6 -6 -6
Wind_Speed
5 5 3 5 6 6 8 8 8 9 9 14 11 9 8 7 6 6 7 6 6 5 4 3 3 3 3 3 2 2 2 2 2 2 2 2 2 2 2 2 2 2 2 2
3 2 3 6 8 8 9 7 9 10 13 11 9 6 5 6 5 6 7 7 7 7 5 4 3 3 3 3 3 2 1 1 2 2 2 2 2 2 2 2 2 2 1 2
3 4 4 7 7 8 6 6 7 9 10 6 6 7 6 5 5 6 6 6 6 7 5 5 4 3 2 2 2 2 1 1 2 2 2 2 2 2 2 2 2 2 2 2
1 4 4 6 1 5 6 7 8 8 8 7 8 7 5 5 5 5 5 6 6 6 5 5 4 3 3 2 1 1 1 1 2 2 2 2 2 2 1 1 1 1 1 2
1 2 8 7 3 4 4 7 6 9 9 7 6 5 5 4 3 4 5 6 5 5 4 4 3 2 2 2 2 1 1 1 1 1 1 1 1 1 1 1 1 1 2 2
3 2 6 6 1 2 2 6 4 5 6 5 3 4 6 4 4 4 5 4 4 4 3 3 3 2 1 2 2 2 2 2 1 0 1 0 0 0 1 1 1 1 1 1
4 5 8 6 2 3 2 6 3 3 4 3 4 5 6 6 5 4 5 5 4 4 3 3 3 2 1 1 2 2 2 1 1 1 0 0 1 1 1 1 2 2 1 1
5 4 8 3 5 6 7 3 2 3 4 5 5 6 5 5 5 5 5 5 4 3 4 3 2 1 1 2 2 2 1 1 1 0 0 0 1 1 1 2 2 1 1 1
9 8 4 4 6 5 3 4 4 4 5 4 5 5 5 5 5 5 5 5 4 2 4 4 2 1 1 2 2 1 1 1 1 1 1 1 1 1 1 1 1 1 1 1
5 9 7 7 7 6 5 5 5 5 5 4 4 5 4 4 5 4 4 4 3 3 3 4 4 2 1 1 1 2 1 1 1 1 1 1 1 1 1 1 1 1 1 0
6 7 6 5 6 7 5 5 5 4 3 4 3 4 4 4 4 4 4 4 3 2 3 4 3 2 2 1 1 1 1 1 1 1 1 0 0 0 1 1 1 1 1 1
7 6 5 5 4 3 3 4 5 4 4 3 3 4 3 3 3 3 3 3 3 3 3 3 2 2 2 1 1 1 0 0 0 0 0 0 0 1 2 1 1 1 0 1
6 3 4 5 4 2 3 4 4 3 3 3 2 2 2 2 2 3 3 3 3 3 3 2 2 2 2 1 1 1 0 0 0 0 0 0 0 0 1 3 3 2 2 2
5 2 4 4 4 3 2 3 2 2 2 2 2 1 1 2 2 3 3 3 3 3 2 2 1 2 2 1 1 0 0 0 0 0 0 0 0 0 0 1 1 2 2 3
5 5 5 3 3 2 1 1 1 2 2 2 1 1 1 1 2 3 3 3 2 3 3 2 2 2 2 1 0 0 0 0 0 0 1 0 0 1 1 1 0 1 1 2
3 2 3 3 4 3 2 2 2 3 3 2 2 2 2 2 2 3 3 2 2 2 3 2 2 2 1 0 0 0 0 1 0 0 1 0 0 0 1 0 0 0 1 1
2 3 3 4 5 4 4 4 4 4 3 3 3 2 1 1 2 2 3 3 2 2 2 2 3 2 1 1 0 0 1 1 0 0 0 0 0 0 1 1 0 1 1 1
6 5 5 5 4 4 4 3 3 3 3 3 1 1 1 1 2 3 3 3 3 3 3 2 2 2 2 1 1 1 1 1 1 1 0 0 0 1 0 1 1 1 1 1
4 4 4 3 3 3 3 3 3 2 2 1 1 1 2 2 2 2 2 2 2 3 3 2 3 3 2 2 1 1 1 1 1 0 0 1 1 1 1 1 1 1 1 1
2 2 2 1 1 1 2 2 2 2 2 1 1 1 1 2 2 1 1 1 2 2 2 2 2 2 1 1 1 1 1 1 0 0 0 1 1 1 1 1 1 1 1 1
2 2 1 1 1 1 2 2 2 2 2 1 2 2 2 2 1 1 0 2 3 2 2 2 2 1 1 1 1 1 1 1 0 1 1 1 1 1 1 1 1 1 1 1
2 2 2 1 1 2 2 1 1 2 1 1 2 2 1 1 1 1 1 2 2 3 2 1 1 1 1 2 1 1 1 0 0 1 1 1 1 1 1 1 1 1 1 1
2 2 2 2 2 2 2 1 1 2 2 2 2 2 2 2 1 1 2 2 1 3 2 1 2 2 2 2 1 1 0 0 0 1 1 1 1 1 1 2 1 1 1 1
2 2 2 1 1 1 2 2 2 1 2 2 2 2 2 1 1 1 2 2 3 3 1 2 2 2 2 1 1 1 0 0 1 1 1 1 1 1 1 1 1 1 1 1
2 2 2 2 2 3 3 2 1 1 1 1 1 1 1 2 2 1 1 1 2 2 2 2 3 3 2 1 1 1 1 1 1 1 1 1 1 1 1 1 1 1 1 1
2 2 3 3 3 3 2 2 1 1 1 1 1 1 0 0 0 0 0 1 1 2 1 1 1 2 2 1 1 1 1 2 2 1 1 1 1 1 1 1 1 1 1 1
2 2 1 2 2 2 3 3 2 2 2 2 1 1 0 0 0 0 1 1 1 1 1 1 1 1 1 1 1 2 2 2 2 1 1 1 1 1 1 2 1 1 0 0
Wind_Direction
261 270 236 234 232 205 204 209 221 254 262 280 299 303 307 311 321 334 335 336 335 332 324 328 334 338 353 354 1 23 26 23 14 17 32 51 46 44 42 50 48 37 62 72
292 280 265 266 252 228 226 227 242 268 277 277 294 303 305 309 319 323 323 326 328 327 326 325 322 328 343 346 352 26 34 1 8 30 39 48 48 48 50 48 42 41 59 76
281 315 329 281 243 205 211 213 205 235 256 298 308 307 301 299 307 306 310 317 319 316 311 309 311 317 319 318 349 19 15 1 19 33 39 36 46 50 52 44 41 40 48 60
311 11 264 251 223 187 214 242 225 245 270 284 280 291 296 290 282 293 305 310 310 310 314 317 323 330 329 338 0 3 3 4 19 33 34 31 49 47 50 54 49 52 59 62
130 280 282 293 250 179 202 275 233 240 268 287 304 316 314 297 278 276 287 295 297 298 303 311 316 322 343 347 356 356 347 348 4 40 45 32 38 26 59 66 46 44 57 64
146 213 254 262 226 165 113 293 264 224 259 287 336 326 304 319 316 311 311 309 312 315 323 322 319 339 6 346 351 322 316 323 344 51 88 29 18 76 71 91 62 43 44 49
189 231 264 258 205 134 165 262 282 227 255 253 238 251 284 314 318 316 317 319 320 321 326 320 327 357 2 348 313 304 329 351 10 44 105 153 107 102 104 92 74 63 55 33
172 209 257 207 146 185 227 274 258 255 257 254 264 285 302 314 317 323 326 327 326 332 330 330 336 8 358 321 306 336 4 17 26 39 72 103 105 84 84 93 85 78 75 41
198 218 256 191 209 240 254 267 266 258 271 267 275 290 305 313 317 317 317 321 330 337 333 332 336 355 325 313 343 23 37 48 50 60 79 99 112 105 89 95 110 125 105 72
252 263 260 255 258 268 260 256 268 267 271 263 268 283 297 307 313 318 320 323 333 343 335 328 332 337 300 315 16 56 58 52 69 82 61 55 80 114 128 145 169 162 154 241
255 275 298 278 248 256 267 273 280 282 268 255 253 276 281 295 305 309 316 323 329 326 317 311 325 345 339 349 76 70 60 61 63 82 93 60 27 232 236 251 228 211 215 222
237 237 218 260 264 257 256 265 265 271 282 274 243 259 278 291 297 303 312 323 331 330 322 316 337 339 337 360 96 105 74 42 85 114 109 126 101 7 359 329 312 310 297 258
239 245 227 264 279 258 250 265 268 259 253 267 269 253 270 290 301 315 319 323 323 320 318 323 342 337 334 351 70 118 175 239 163 138 129 118 93 50 355 357 8 20 24 7
242 247 271 262 264 273 260 271 279 288 273 259 261 271 279 303 316 320 313 313 319 324 327 336 352 324 323 353 64 89 160 271 203 152 162 190 226 269 277 300 334 353 6 8
243 227 237 264 282 290 288 302 320 309 310 310 289 276 279 294 301 304 309 321 341 348 343 350 351 314 325 15 73 99 219 214 167 144 141 161 202 259 278 280 303 340 357 0
260 251 244 251 261 271 273 254 257 275 285 288 291 289 286 287 299 312 322 337 354 338 334 339 325 312 313 355 75 99 190 206 179 156 154 177 225 273 296 292 315 327 321 323
198 241 239 250 256 259 251 243 242 255 266 268 271 283 303 325 334 334 332 336 334 323 323 316 308 323 349 14 98 165 165 159 119 107 125 189 251 262 276 273 269 294 295 305
220 227 222 222 234 244 255 251 245 250 252 253 270 285 274 275 287 300 316 339 2 358 341 325 324 350 7 9 47 125 128 119 111 107 96 279 284 275 276 272 263 280 299 323
235 233 231 228 229 229 244 248 246 245 247 234 234 254 263 272 281 298 324 351 354 338 330 334 355 13 8 2 19 111 120 113 91 73 11 284 311 298 285 278 280 286 296 309
237 225 218 226 236 226 240 250 239 246 244 208 200 235 279 290 300 314 327 314 289 282 294 325 351 357 352 351 13 104 118 121 127 265 273 268 268 275 279 288 288 290 294 295
226 222 213 219 264 278 254 239 226 240 250 211 204 226 252 285 300 294 296 313 316 319 323 333 354 339 344 359 20 89 104 117 181 229 237 239 251 273 277 284 294 290 289 296
220 217 224 225 238 289 293 264 234 229 232 235 233 229 239 277 298 309 276 263 291 325 346 332 324 329 348 16 72 89 102 135 213 231 234 237 240 265 274 274 282 290 291 286
215 213 217 223 229 257 298 288 250 226 224 228 229 227 229 239 245 257 297 303 301 324 341 317 321 341 6 41 76 89 94 153 256 250 248 253 257 261 273 277 271 269 269 264
208 208 212 206 167 197 272 281 275 252 238 241 237 227 216 232 279 262 263 304 327 336 341 331 345 356 21 43 59 60 22 325 306 298 293 293 286 269 273 278 271 262 254 252
203 200 193 185 203 232 244 257 279 273 261 270 272 251 220 206 221 267 295 299 329 350 358 352 2 15 34 39 37 28 359 320 316 329 335 330 319 304 291 286 274 264 263 258
208 214 220 220 219 223 217 207 222 239 230 249 279 272 255 221 199 254 312 328 353 11 18 9 9 22 33 31 20 13 2 344 342 349 338 326 319 308 300 298 291 278 273 259
214 214 214 239 238 218 208 205 212 223 216 213 239 248 196 131 96 67 44 38 37 38 37 26 26 26 24 25 20 10 1 352 347 343 338 330 317 300 297 299 306 299 284 246
Height
1505 1503 1503 1502 1502 1504 1505 1501 1500 1489 1485 1473 1469 1467 1464 1460 1457 1454 1452 1450 1448 1446 1445 1444 1443 1442 1442 1442 1441 1441 1441 1441 1441 1441 1441 1441 1441 1442 1442 1442 1443 1444 1445 1446
1504 1501 1502 1499 1495 1497 1497 1497 1494 1488 1481 1470 1469 1466 1463 1460 1457 1455 1452 1450 1448 1446 1445 1443 1443 1442 1441 1441 1441 1441 1441 1441 1440 1440 1439 1440 1440 1440 1441 1441 1442 1443 1444 1444
1504 1503 1498 1494 1487 1489 1489 1487 1487 1483 1475 1469 1468 1465 1462 1460 1457 1455 1453 1450 1448 1447 1445 1443 1442 1441 1440 1440 1440 1440 1439 1439 1439 1439 1438 1439 1439 1439 1440 1440 1441 1442 1443 1443
1509 1505 1497 1483 1482 1482 1483 1480 1479 1475 1471 1469 1467 1464 1461 1460 1457 1455 1452 1450 1448 1446 1444 1443 1441 1440 1440 1439 1439 1438 1437 1437 1437 1437 1437 1438 1438 1438 1439 1439 1440 1441 1441 1442
1512 1509 1498 1483 1480 1481 1482 1477 1472 1472 1469 1467 1465 1462 1459 1458 1456 1454 1452 1450 1448 1446 1444 1442 1441 1440 1438 1438 1437 1436 1436 1436 1436 1436 1436 1436 1437 1437 1438 1438 1439 1440 1441 1442
1512 1505 1493 1478 1478 1477 1480 1476 1467 1467 1467 1466 1465 1465 1460 1457 1455 1453 1451 1449 1446 1444 1442 1441 1439 1438 1437 1436 1435 1435 1435 1435 1435 1435 1435 1435 1436 1436 1437 1438 1438 1439 1440 1441
1509 1506 1490 1477 1476 1477 1481 1473 1466 1465 1465 1464 1464 1463 1459 1456 1453 1451 1449 1447 1445 1443 1441 1439 1438 1437 1435 1434 1434 1434 1434 1433 1434 1434 1434 1435 1435 1436 1436 1437 1438 1439 1440 1441
1506 1503 1487 1473 1474 1475 1470 1465 1464 1463 1462 1462 1460 1459 1457 1454 1452 1450 1447 1445 1444 1442 1440 1439 1437 1435 1434 1433 1433 1432 1432 1432 1432 1433 1433 1434 1435 1435 1436 1436 1437 1438 1439 1440
1488 1480 1471 1469 1467 1467 1466 1464 1463 1461 1460 1459 1458 1456 1455 1453 1451 1449 1446 1444 1442 1440 1439 1437 1436 1434 1432 1432 1432 1431 1430 1430 1431 1432 1433 1433 1434 1434 1435 1436 1437 1438 1438 1439
1482 1471 1467 1466 1465 1464 1463 1462 1461 1460 1458 1457 1456 1454 1452 1451 1449 1447 1445 1443 1441 1439 1437 1436 1434 1433 1432 1431 1431 1430 1429 1430 1430 1431 1432 1433 1433 1434 1434 1435 1436 1437 1437 1438
1476 1467 1464 1461 1460 1460 1460 1459 1458 1457 1456 1455 1454 1452 1451 1449 1447 1446 1444 1442 1441 1438 1436 1434 1433 1432 1432 1431 1430 1430 1429 1430 1430 1431 1432 1432 1433 1433 1434 1435 1436 1436 1436 1437
1466 1461 1461 1459 1458 1458 1457 1456 1455 1454 1453 1452 1452 1450 1449 1447 1446 1444 1443 1441 1439 1437 1435 1434 1433 1432 1432 1431 1430 1430 1429 1430 1430 1431 1431 1432 1432 1433 1434 1434 1435 1436 1436 1437
1458 1457 1457 1456 1456 1455 1455 1454 1453 1452 1451 1450 1449 1448 1447 1446 1445 1443 1442 1440 1438 1436 1435 1433 1432 1432 1431 1431 1430 1430 1430 1430 1430 1430 1431 1431 1432 1432 1433 1434 1434 1435 1435 1436
1455 1455 1454 1453 1453 1453 1453 1452 1451 1450 1449 1448 1447 1446 1445 1444 1443 1442 1441 1439 1438 1436 1434 1433 1432 1431 1431 1431 1430 1430 1430 1430 1430 1430 1431 1431 1431 1432 1432 1432 1433 1433 1434 1434
1452 1452 1452 1451 1451 1451 1450 1450 1449 1448 1447 1446 1446 1445 1444 1443 1442 1441 1440 1438 1437 1435 1434 1433 1432 1431 1431 1430 1430 1429 1429 1429 1429 1430 1430 1430 1431 1431 1431 1431 1432 1431 1432 1433
1448 1448 1448 1448 1448 1448 1448 1447 1447 1446 1445 1445 1444 1443 1443 1442 1441 1440 1439 1438 1436 1434 1433 1432 1431 1430 1430 1429 1429 1429 1428 1429 1429 1429 1429 1430 1430 1430 1430 1430 1430 1430 1431 1431
1445 1445 1445 1445 1445 1445 1445 1445 1445 1444 1444 1443 1442 1442 1441 1440 1440 1439 1438 1437 1435 1434 1433 1432 1430 1430 1429 1428 1428 1427 1427 1428 1428 1428 1428 1429 1429 1429 1429 1429 1429 1429 1430 1430
1442 1442 1443 1443 1443 1443 1443 1443 1443 1442 1442 1441 1441 1440 1440 1439 1438 1437 1437 1435 1434 1433 1432 1431 1430 1429 1428 1428 1427 1427 1427 1427 1427 1427 1427 1427 1427 1427 1428 1428 1428 1428 1429 1429
1439 1440 1440 1440 1441 1441 1441 1441 1440 1440 1440 1440 1439 1438 1438 1438 1437 1436 1435 1434 1433 1431 1431 1430 1429 1428 1428 1427 1427 1426 1426 1426 1426 1426 1426 1426 1426 1427 1427 1427 1427 1427 1427 1427
1437 1438 1438 1438 1439 1439 1439 1439 1439 1438 1438 1438 1437 1437 1436 1436 1435 1435 1434 1433 1432 1431 1430 1429 1428 1427 1427 1426 1426 1426 1426 1425 1425 1425 1425 1425 1425 1426 1426 1426 1426 1426 1426 1426
1435 1436 1436 1436 1437 1437 1437 1437 1437 1436 1436 1436 1436 1435 1435 1434 1434 1433 1432 1431 1431 1430 1429 1428 1427 1426 1426 1425 1425 1425 1425 1425 1425 1425 1425 1424 1424 1424 1424 1424 1424 1424 1424 1424
1434 1434 1434 1435 1435 1435 1435 1435 1435 1435 1434 1434 1434 1434 1433 1433 1432 1432 1431 1431 1430 1429 1428 1427 1426 1426 1425 1425 1424 1424 1424 1424 1424 1424 1424 1423 1423 1423 1423 1423 1423 1423 1423 1423
1432 1433 1433 1433 1433 1433 1433 1433 1433 1433 1432 1432 1432 1432 1432 1431 1431 1430 1429 1429 1429 1428 1427 1426 1426 1425 1424 1424 1424 1423 1423 1423 1423 1423 1423 1422 1422 1422 1422 1422 1422 1422 1422 1422
1430 1431 1431 1431 1431 1431 1431 1431 1431 1431 1431 1430 1430 1430 1430 1430 1429 1429 1429 1428 1428 1427 1426 1426 1425 1424 1424 1423 1423 1423 1423 1422 1422 1422 1422 1421 1421 1421 1421 1421 1421 1421 1421 1421
1428 1429 1429 1429 1429 1429 1429 1429 1429 1429 1429 1429 1429 1429 1428 1428 1428 1428 1427 1427 1427 1426 1426 1425 1424 1424 1423 1423 1423 1422 1422 1422 1422 1421 1421 1421 1421 1421 1420 1420 1420 1420 1420 1420
1426 1426 1426 1427 1427 1427 1427 1427 1427 1427 1427 1427 1427 1427 1427 1427 1427 1426 1426 1426 1426 1426 1425 1425 1424 1424 1423 1423 1423 1422 1422 1422 1421 1421 1421 1421 1421 1420 1420 1420 1420 1420 1420 1419
1423 1423 1423 1424 1424 1424 1424 1425 1425 1425 1425 1425 1425 1425 1425 1425 1425 1425 1425 1425 1425 1425 1425 1424 1424 1424 1423 1423 1423 1422 1422 1422 1422 1421 1421 1421 1420 1420 1420 1419 1419 1419 1419 1419